This is the latest recevied weather packets stored in our database for station/object KD0RII. If no packets are shown the sender has not sent any weather packets the latest 10 day(s).
| Time | Temp. | Humidity | Pressure | Rain* | Wind** | Luminosity | Snow |
|---|---|---|---|---|---|---|---|
| 1778288376 | 17.78° C | 72% | 1009.5 hPa | 0 mm | - | 14 W/m² | - |
| 1778288075 | 17.78° C | 71% | 1009.5 hPa | 0 mm | - | 17 W/m² | - |
| 1778287774 | 18.33° C | 70% | 1009.4 hPa | 0 mm | - | 20 W/m² | - |
| 1778287471 | 18.89° C | 67% | 1009.2 hPa | 0 mm | - | 23 W/m² | - |
| 1778287169 | 19.44° C | 66% | 1009.1 hPa | 0 mm | - | 25 W/m² | - |
| 1778286866 | 20° C | 64% | 1009.1 hPa | 0 mm | - | 27 W/m² | - |
| 1778286563 | 20° C | 65% | 1009.1 hPa | 0 mm | - | 43 W/m² | - |
| 1778286261 | 20° C | 65% | 1009.1 hPa | 0 mm | - | 30 W/m² | - |
| 1778285958 | 20.56° C | 64% | 1008.9 hPa | 0 mm | - | 41 W/m² | - |
| 1778285654 | 20.56° C | 63% | 1009.1 hPa | 0 mm | - | 66 W/m² | - |
| 1778285352 | 20.56° C | 64% | 1009.1 hPa | 0 mm | - | 45 W/m² | - |
| 1778285049 | 20.56° C | 63% | 1008.7 hPa | 0 mm | - | 51 W/m² | - |
| 1778284745 | 21.11° C | 62% | 1008.9 hPa | 0 mm | - | 43 W/m² | - |
| 1778284443 | 21.11° C | 61% | 1008.8 hPa | 0 mm | - | 52 W/m² | - |
| 1778284139 | 21.67° C | 60% | 1008.7 hPa | 0 mm | - | 158 W/m² | - |
| 1778283836 | 22.22° C | 59% | 1008.8 hPa | 0 mm | - | 175 W/m² | - |
| 1778283535 | 22.78° C | 55% | 1008.7 hPa | 0 mm | - | 192 W/m² | - |
| 1778283234 | 23.33° C | 55% | 1009 hPa | 0 mm | - | 205 W/m² | - |
| 1778282930 | 22.22° C | 56% | 1008.7 hPa | 0 mm | - | 222 W/m² | - |
| 1778282626 | 22.22° C | 60% | 1008.7 hPa | 0 mm | - | 242 W/m² | - |
| 1778282325 | 22.22° C | 61% | 1008.6 hPa | 0 mm | - | 272 W/m² | - |
| 1778282021 | 22.22° C | 60% | 1008.7 hPa | 0 mm | - | 299 W/m² | - |
| 1778281717 | 22.22° C | 64% | 1008.7 hPa | 0 mm | - | 315 W/m² | - |
| 1778281414 | 21.67° C | 64% | 1008.7 hPa | 0 mm | - | 102 W/m² | - |
| 1778281112 | 21.67° C | 68% | 1008.8 hPa | 0 mm | - | 196 W/m² | - |
* Rain latest hour (hover to see other rain measurements)
** Current wind speed in m/s (hover to see current wind gust speed)